Hourly Data Report for October 10, 2016

All times are specified in Local Standard Time (LST). Add 1 hour to adjust for Daylight Saving Time where and when it is observed.

KUGAARUK CLIMATE
NUNAVUT

68°32'15.060" N
89°47'47.020" W
15.80 m
2303094
71407
NBB

Download Data

Hourly Data (October 2016)
Hourly Data Report for October 10, 2016
Temp Definition
°C
Dew Point Temp Definition
°C
Rel Hum Definition
%
Wind Dir Definition
10's deg

Wind Spd Definition
km/h
Visibility Definition
km
Stn Press Definition
kPa
Hmdx Definition


Wind Chill Definition


Weather Definition


TIME
00:00 -7.2 -9.3 85 25 22   100.94   -15 LegendNANA
01:00 -6.4 -8.2 87 23 24   100.87   -14 LegendNANA
02:00 -5.6 -7.6 86 25 25   100.80   -13 LegendNANA
03:00 -5.2 -7.7 83 29 18   100.77   -11 LegendNANA
04:00 -5.5 -8.4 80 31 24   100.77   -13 LegendNANA
05:00 -5.8 -10.4 70 31 19   100.78   -12 LegendNANA
06:00 -6.0 -9.3 77 31 26   100.78   -14 LegendNANA
07:00 -6.5 -10.5 74 30 25   100.78   -14 LegendNANA
08:00 -7.0 -10.8 74 31 21   100.78   -14 LegendNANA
09:00 -7.3 -11.6 72 31 19   100.79   -14 LegendNANA
10:00 -7.7 -11.1 76 29 17   100.80   -14 LegendNANA
11:00 -6.7 -11.5 69 28 20   100.82   -14 LegendNANA
12:00 -6.6 -11.4 69 26 20   100.83   -14 LegendNANA
13:00 -6.2 -10.5 71 27 22   100.83   -13 LegendNANA
14:00 -6.1 -10.0 74 28 28   100.83   -14 LegendNANA
15:00 -6.0 -9.2 79 29 26   100.82   -14 LegendNANA
16:00 -5.4 -8.6 78 28 24   100.81   -13 LegendNANA
17:00 -5.3 -8.7 77 28 21   100.81   -12 LegendNANA
18:00 -5.1 -8.2 79 28 22   100.79   -12 LegendNANA
19:00 -4.9 -7.5 82 29 18   100.77   -11 LegendNANA
20:00 -5.4 -6.9 90 27 20   100.75   -12 LegendNANA
21:00 -5.7 -7.0 90 26 14   100.74   -11 LegendNANA
22:00 -5.7 -7.3 88 32 4   100.72   -8 LegendNANA
23:00 -6.8 -8.4 89 2 4   100.73   -9 LegendNANA

Notes on Data Quality.

Legend

  • E = Estimated
  • M = Missing
  • NA = Not Available
  • ‡ = Partner data that is not subject to review by the National Climate Archives
Date modified: